DW1006 Weather Reports


time (UTC)temp
C
wind
direction
speed
KPH
gust
KPH
rain 1hr
cm
rain 24hr
cm
rain mn
cm
humidity
%
barometer
mb
20260506135214 8 330 4.8 12.9 0.03 0.91 0.89 97 1008.5
20260506134213 8 275 4.8 14.5 0.00 0.89 0.89 97 1008.6
20260506133713 8 319 4.8 14.5 0.00 0.89 0.89 97 1008.5
20260506133213 8 327 3.2 12.9 0.00 0.89 0.89 97 1008.5
20260506132714 8 311 3.2 6.4 0.00 0.89 0.89 97 1008.5
20260506132213 8 304 3.2 8.0 0.00 0.89 0.89 97 1008.5
20260506131713 8 304 3.2 9.7 0.00 0.89 0.89 97 1008.4
20260506131215 8 5 4.8 14.5 0.00 0.89 0.89 97 1008.4
20260506130714 8 327 4.8 14.5 0.00 0.89 0.89 97 1008.3
20260506130213 8 355 3.2 12.9 0.00 0.89 0.89 97 1008.2
20260506125713 8 316 4.8 12.9 0.00 0.89 0.89 98 1008.3
20260506125213 8 343 4.8 12.9 0.00 0.89 0.89 97 1008.3
20260506124715 8 316 4.8 11.3 0.00 0.89 0.89 98 1008.2
20260506124213 8 325 4.8 11.3 0.00 0.91 0.89 98 1008.2
20260506123711 8 355 4.8 11.3 0.00 0.91 0.89 98 1008.1
20260506123211 8 22 3.2 11.3 0.00 0.91 0.89 98 1008.1
20260506122159 8 344 4.8 11.3 0.00 0.91 0.89 98 1008.0
20260506121147 8 312 4.8 17.7 0.00 0.91 0.89 98 1008.0
20260506120641 9 313 4.8 14.5 0.00 0.91 0.89 97 1007.9
20260506115629 9 280 4.8 16.1 0.03 0.91 0.89 98 1007.8
20260506115123 9 319 6.4 14.5 0.03 0.91 0.89 98 1007.7
20260506114617 9 296 6.4 17.7 0.03 0.91 0.89 98 1007.6
20260506114112 9 317 6.4 17.7 0.03 0.91 0.89 98 1007.8
20260506113605 9 312 6.4 14.5 0.03 0.91 0.89 98 1007.7
20260506113101 9 350 4.8 14.5 0.05 0.91 0.89 98 1007.7
20260506112553 9 355 4.8 12.9 0.05 0.91 0.89 99 1007.6
20260506112047 9 310 3.2 12.9 0.05 0.91 0.89 99 1007.5
20260506111541 9 344 3.2 12.9 0.05 0.91 0.89 99 1007.5
20260506111035 9 348 4.8 12.9 0.05 0.91 0.89 99 1007.7
20260506110542 9 250 4.8 11.3 0.05 0.91 0.89 98 1007.5
20260506110023 9 347 4.8 11.3 0.05 0.89 0.86 99 1007.5
20260506105518 9 344 4.8 12.9 0.05 0.89 0.86 99 1007.5
20260506105011 9 322 4.8 12.9 0.08 0.89 0.86 99 1007.5
20260506103959 9 310 3.2 12.9 0.08 0.89 0.86 99 1007.5
20260506103453 9 312 4.8 12.9 0.08 0.89 0.86 99 1007.5
20260506102947 9 288 4.8 14.5 0.08 0.89 0.84 99 1007.5
20260506102441 9 304 4.8 12.9 0.08 0.89 0.84 99 1007.4
20260506101935 9 328 4.8 12.9 0.10 0.89 0.84 99 1007.3
20260506101429 9 355 4.8 12.9 0.08 0.86 0.81 99 1007.3
20260506100417 9 5 3.2 17.7 0.05 0.84 0.79 99 1007.2
20260506095406 9 315 4.8 14.5 0.08 0.84 0.79 99 1007.1
20260506094900 9 319 3.2 12.9 0.05 0.81 0.79 99 1007.2
20260506094353 9 317 3.2 12.9 0.05 0.81 0.79 99 1007.1
20260506093341 9 338 3.2 12.9 0.05 0.79 0.76 99 1007.1
20260506092329 9 292 4.8 12.9 0.05 0.79 0.76 99 1006.9
20260506091826 9 337 4.8 12.9 0.05 0.79 0.74 99 1007.0
20260506091317 9 284 3.2 8.0 0.05 0.79 0.74 100 1006.9
20260506090810 9 288 3.2 8.0 0.05 0.79 0.74 100 1006.9
20260506085800 9 263 3.2 12.9 0.03 0.76 0.71 99 1006.7
20260506085253 9 351 3.2 12.9 0.03 0.76 0.71 99 1006.7
20260506084748 9 302 3.2 8.0 0.05 0.76 0.71 99 1006.7
20260506084243 9 320 3.2 8.0 0.05 0.76 0.71 100 1006.7
20260506083736 9 294 3.2 14.5 0.03 0.74 0.71 100 1006.6
20260506083230 9 316 4.8 17.7 0.03 0.74 0.71 100 1006.6
20260506082724 9 307 4.8 17.7 0.03 0.74 0.71 100 1006.4
20260506082219 9 355 3.2 9.7 0.03 0.74 0.71 100 1006.4
20260506081713 9 297 3.2 9.7 0.05 0.74 0.71 100 1006.4
20260506080701 9 338 4.8 11.3 0.05 0.74 0.71 100 1006.4
20260506080154 9 316 3.2 11.3 0.05 0.74 0.71 100 1006.3
20260506072613 9 321 4.8 12.9 0.05 0.71 0.69 100 1006.2
20260506072106 9 345 6.4 17.7 0.05 0.71 0.69 100 1006.2
20260506071607 9 11 6.4 19.3 0.05 0.71 0.66 100 1006.2
20260506070606 9 346 6.4 16.1 0.05 0.71 0.66 100 1006.2
20260506070110 9 12 4.8 16.1 0.05 0.71 0.66 100 1006.2
20260506062106 9 308 3.2 12.9 0.05 0.66 0.61 100 1005.9
20260506061104 9 40 4.8 12.9 0.05 0.66 0.61 100 1005.9
20260506060606 9 312 4.8 12.9 0.05 0.66 0.61 100 1005.8
20260506051102 9 5 3.2 12.9 0.08 0.61 0.58 100 1005.8
20260506050615 9 313 4.8 12.9 0.08 0.61 0.56 100 1005.9
20260506045103 9 0 1.6 8.0 0.10 0.61 0.56 100 1005.8
20260506044603 9 287 1.6 8.0 0.08 0.58 0.53 100 1005.7
20260506043059 9 340 3.2 8.0 0.05 0.56 0.51 100 1005.8
20260506042553 9 298 3.2 6.4 0.08 0.56 0.51 100 1005.8
20260506042047 9 305 3.2 9.7 0.05 0.53 0.51 100 1005.7
20260506041541 9 317 3.2 9.7 0.05 0.53 0.51 100 1005.8
20260506040023 9 322 3.2 12.9 0.05 0.51 0.48 100 1005.7
20260506035517 9 309 3.2 12.9 0.08 0.51 0.48 100 1005.8
20260506035011 9 306 4.8 12.9 0.05 0.51 0.46 100 1005.8
20260506034505 9 327 4.8 12.9 0.05 0.51 0.46 100 1005.8
20260506033454 9 321 3.2 6.4 0.08 0.51 0.46 100 1005.8
20260506032947 9 329 3.2 8.0 0.05 0.48 0.46 100 1005.9
20260506031935 9 5 1.6 8.0 0.08 0.48 0.43 100 1005.9
20260506031429 9 261 3.2 8.0 0.08 0.48 0.43 99 1005.9
20260506030417 9 288 3.2 11.3 0.08 0.46 0.43 99 1006.1
20260506025911 9 324 3.2 11.3 0.08 0.46 0.43 99 1006.1
20260506024352 9 331 3.2 8.0 0.10 0.43 0.41 99 1006.3
20260506023847 9 314 3.2 8.0 0.08 0.43 0.41 100 1006.2
20260506023340 9 304 3.2 12.9 0.10 0.43 0.38 100 1006.3
20260506022834 9 300 3.2 12.9 0.13 0.43 0.38 100 1006.2
20260506022329 9 355 3.2 12.9 0.13 0.43 0.38 100 1006.3
20260506021823 9 337 3.2 11.3 0.13 0.41 0.36 100 1006.3
20260506021317 9 340 3.2 14.5 0.13 0.41 0.36 99 1006.3
20260506020811 9 323 3.2 14.5 0.15 0.41 0.36 99 1006.3
20260506020304 9 284 3.2 8.0 0.15 0.38 0.33 99 1006.3
20260506015759 9 337 3.2 8.0 0.15 0.38 0.33 99 1006.3
20260506015253 9 281 3.2 14.5 0.15 0.36 0.33 99 1006.4
20260506014746 9 320 3.2 14.5 0.15 0.36 0.33 99 1006.4
20260506014241 9 338 1.6 6.4 0.15 0.33 0.30 99 1006.5
20260506013736 9 355 1.6 6.4 0.15 0.33 0.28 99 1006.5
20260506013229 9 350 3.2 8.0 0.15 0.33 0.28 100 1006.6
20260506012722 9 311 3.2 8.0 0.15 0.30 0.25 100 1006.6
20260506012217 9 298 1.6 8.0 0.15 0.30 0.25 100 1006.6
20260506011711 9 346 3.2 8.0 0.15 0.28 0.23 100 1006.6
20260506010658 10 355 1.6 12.9 0.13 0.25 0.23 99 1006.6
20260506005646 10 355 3.2 8.0 0.13 0.23 0.20 99 1006.7
20260506003622 10 297 3.2 6.4 0.05 0.18 0.15 99 1006.8
20260506003116 10 309 3.2 11.3 0.05 0.15 0.13 99 1006.9
20260506002609 10 17 3.2 11.3 0.05 0.15 0.13 99 1007.0
20260506002103 10 342 1.6 8.0 0.05 0.15 0.13 99 1007.0
20260506001558 10 5 1.6 6.4 0.05 0.15 0.10 99 1007.1
20260506001052 10 339 1.6 8.0 0.05 0.15 0.10 99 1007.0
20260506000048 10 315 3.2 9.7 0.05 0.13 0.08 99 1007.1
20260505235534 10 327 3.2 11.3 0.05 0.13 0.08 99 1007.2
20260505235028 10 9 3.2 11.3 0.05 0.13 0.08 99 1007.3
20260505234521 10 319 1.6 6.4 0.05 0.13 0.08 99 1007.2
20260505233510 10 343 4.8 16.1 0.05 0.13 0.08 99 1007.3
20260505233004 10 16 4.8 16.1 0.05 0.10 0.05 99 1007.4
20260505232458 10 0 4.8 12.9 0.05 0.10 0.05 99 1007.4
20260505231954 10 315 4.8 12.9 0.05 0.10 0.05 99 1007.5
20260505231454 10 343 3.2 9.7 0.05 0.10 0.05 99 1007.5
20260505230506 10 324 3.2 12.9 0.05 0.08 0.05 99 1007.5
20260505225454 10 314 4.8 16.1 0.05 0.08 0.05 99 1007.5
20260505224952 10 329 3.2 16.1 0.05 0.08 0.05 99 1007.5
20260505223950 10 355 3.2 9.7 0.03 0.05 0.03 99 1007.5
20260505223449 10 355 3.2 9.7 0.05 0.05 0.03 99 1007.5
20260505222950 10 300 1.6 8.0 0.05 0.05 0.03 99 1007.6
20260505221947 10 336 3.2 8.0 0.05 0.05 0.03 99 1007.6
20260505221447 10 323 3.2 8.0 0.03 0.05 0.00 99 1007.6
20260505220946 10 22 3.2 11.3 0.03 0.05 0.00 99 1007.7
20260505220449 10 332 3.2 11.3 0.03 0.05 0.00 99 1007.7
20260505215942 10 310 3.2 9.7 0.03 0.05 0.05 99 1007.7
20260505214932 10 298 1.6 8.0 0.03 0.05 0.05 99 1007.7
20260505213412 10 318 3.2 12.9 0.00 0.03 0.03 99 1007.9
20260505212906 10 346 3.2 14.5 0.00 0.03 0.03 99 1007.8
20260505211859 10 337 3.2 19.3 0.00 0.03 0.03 99 1008.0
20260505211359 10 5 3.2 19.3 0.00 0.03 0.03 99 1008.0
20260505210908 10 355 4.8 16.1 0.00 0.03 0.03 99 1008.0
20260505210359 10 0 3.2 16.1 0.00 0.03 0.03 99 1008.1
20260505205859 10 16 3.2 12.9 0.00 0.03 0.03 98 1008.1
20260505204905 10 26 4.8 12.9 0.00 0.03 0.03 98 1008.1
20260505204401 10 11 3.2 12.9 0.00 0.03 0.03 98 1008.1
20260505203357 10 355 3.2 11.3 0.00 0.03 0.03 98 1008.1
20260505202859 10 22 3.2 9.7 0.00 0.03 0.03 98 1008.1
20260505202357 10 329 3.2 8.0 0.00 0.03 0.03 98 1008.1
20260505201855 10 325 3.2 11.3 0.00 0.03 0.03 98 1008.0
20260505201354 10 315 3.2 12.9 0.00 0.03 0.03 98 1007.9
20260505200854 10 331 3.2 12.9 0.00 0.03 0.03 98 1007.9
20260505200356 10 315 3.2 12.9 0.00 0.03 0.03 98 1007.9
20260505195353 10 344 3.2 12.9 0.00 0.03 0.03 97 1008.0
20260505194852 10 5 3.2 12.9 0.00 0.03 0.03 98 1007.8
20260505194351 10 341 3.2 12.9 0.00 0.03 0.03 97 1007.8
20260505193852 10 348 1.6 12.9 0.00 0.03 0.03 98 1007.8
20260505192851 10 22 3.2 12.9 0.00 0.03 0.03 97 1007.8
20260505192352 10 14 4.8 16.1 0.00 0.03 0.03 97 1007.9
20260505191852 10 324 3.2 16.1 0.00 0.03 0.03 97 1007.8
20260505191348 10 5 3.2 11.3 0.00 0.03 0.03 97 1007.8
20260505190848 10 319 3.2 8.0 0.00 0.03 0.03 97 1007.8
20260505185847 10 295 1.6 8.0 0.00 0.03 0.03 97 1007.8
20260505184848 10 318 3.2 12.9 0.00 0.03 0.03 97 1007.7
20260505184348 10 9 3.2 11.3 0.00 0.03 0.03 97 1007.9
20260505183847 10 348 3.2 11.3 0.00 0.03 0.03 97 1007.9
20260505183348 10 30 3.2 11.3 0.00 0.03 0.03 97 1007.9
20260505182342 10 15 6.4 16.1 0.00 0.03 0.03 97 1007.9
20260505181841 10 333 4.8 14.5 0.00 0.03 0.03 97 1007.9
20260505181342 10 338 4.8 14.5 0.00 0.03 0.03 97 1008.0
20260505180840 10 355 3.2 14.5 0.00 0.03 0.03 97 1007.9
20260505180342 10 355 3.2 14.5 0.00 0.03 0.03 97 1007.9
20260505175843 10 321 3.2 12.9 0.00 0.03 0.03 96 1008.0
20260505175341 10 340 3.2 12.9 0.00 0.03 0.03 96 1008.0
20260505174842 10 306 3.2 11.3 0.00 0.03 0.03 96 1008.1
20260505174339 11 305 3.2 12.9 0.00 0.03 0.03 96 1008.2
20260505173836 11 11 3.2 12.9 0.00 0.03 0.03 96 1008.2
20260505173337 11 321 3.2 12.9 0.00 0.03 0.03 96 1008.2
20260505172836 11 351 3.2 12.9 0.00 0.03 0.03 96 1008.2
20260505171838 11 355 3.2 12.9 0.00 0.05 0.03 96 1008.1
20260505171337 11 5 3.2 12.9 0.00 0.05 0.03 96 1008.1
20260505170837 11 15 4.8 12.9 0.00 0.05 0.03 96 1008.0
20260505170350 11 5 4.8 14.5 0.00 0.05 0.03 96 1008.1
20260505165325 11 0 3.2 8.0 0.00 0.05 0.03 96 1008.2
20260505164819 11 327 3.2 11.3 0.00 0.05 0.03 96 1008.2
20260505164313 11 298 3.2 11.3 0.00 0.05 0.03 96 1008.1
20260505163806 11 321 3.2 9.7 0.00 0.05 0.03 96 1008.2
20260505162755 11 350 6.4 14.5 0.00 0.05 0.03 95 1008.1
20260505162248 11 341 6.4 19.3 0.00 0.05 0.03 96 1008.2
20260505161742 11 355 6.4 19.3 0.00 0.05 0.03 95 1008.1
20260505161237 11 296 4.8 17.7 0.00 0.05 0.03 95 1008.1
20260505160730 11 11 3.2 14.5 0.00 0.08 0.03 95 1008.1
20260505153152 11 325 0.0 0.0 0.00 0.15 0.03 96 1008.3
20260505152136 11 317 0.0 0.0 0.00 0.15 0.03 95 1008.4
20260505151630 11 17 0.0 0.0 0.00 0.15 0.03 95 1008.4
20260505151124 11 28 0.0 0.0 0.00 0.18 0.03 95 1008.5
20260505150112 11 316 0.0 0.0 0.00 0.20 0.03 95 1008.6
20260505140506 12 319 0.0 0.0 0.00 0.23 0.03 94 1008.7